Showing default

FLOCK 4G 1, 62666

Orbit data source: Space-Track

FLOCK 4G 1, 62666 is a payload satellite owned by Planet (US) in SSO that was launched on Tue, 14 Jan 2025 UTC via an FALCON 9 launch vehicle from the Air Force Western Test Range (AFWTR). Payload-class satellites include a variety of spacecraft equipped with specific instruments for various scientific and technological missions. These include communications satellites like Starlink; space stations such as the ISS; scientific satellites like the Hubble; Earth observation satellites from companies like Planet Labs, Umbra, and HawkEye 360; GPS; miniature CubeSats for education and research; and military/defense satellites.

Loading next visibility...
Identifier
62666, 2025-009BK
Orbit
SSO
Country
Flag of USUS
Related business
Manufacturer
Planet
Mission
Operational Commercial Imaging
Bus & Motor
CUBESAT 3U, Unknown motor
Mass
5.7 kg wet, 5.7 kg dry
Launch date (UTC)
2025-01-14 (1 year ago)
Launch vehicle
FALCON 9
Launch site
Air Force Western Test Range (AFWTR)
Object type
Payload
Rocket body
Debris
Shape & HBR
Box + 2 Pan, 1.0 m
Radar Cross Section
0.072 m², Medium (>0.1 m² and < 1m²)

Expand to show TLE details & history
Last TLE update: 11 hours ago

TLE from 11 hours ago
0 FLOCK 4G 1
1 62666U 25009BK  26131.94570566  .00006409  00000-0  23090-3 0  9993
2 62666  97.4023 214.1177 0005770  95.7381 264.4517 15.28895197 73372
Epoch: 2026-05-11T22:41Z
TLE epoch observation values (Epoch: 2026-05-11T22:41:48.969Z)
Latitude
0.00001°
Longitude
3.93651°
Altitude
482.601 km
Speed
7.624 km/s
True Right ascension
14h 16m 28s
True Declination
0° 00' 00"
Sunlit
Object was in full shadow at epoch
Visualization orbit readout
Latitude
Unknown
Longitude
Unknown
Altitude
Unknown
Speed
Unknown
Apparent Right ascension
Unknown
Apparent Declination
Unknown
Sunlit
N/A
Visualization observer readout
Local Sidereal Time
18:30:21
Azimuth
Unknown
Elevation
Unknown
Doppler factor
Unknown
Orbital elements
Apogee altitude
480.022 km
Perigee altitude
472.113 km
Semi-major axis
6,854.205 km
Eccentricity
0.00058
Inclination
97.4023°
RAAN
214.1177°
Arg. of periapsis
95.7381°
True anomaly
264.3859°
Mean anomaly
264.4517°
Eccentric anomaly
264.4188°
Mean motion
3.82479 °/min
Orbital period
94.12 mins
BSTAR
0.0002309
Loading maneuver chart data...
Computing Atmospheric mass density...
Loading historical data...
Loading historical data...
Loading historical data...
Loading historical data...
Loading historical data...
Loading historical data...
Loading historical data...

Documentation

Showing up to 5 results
|